Weather History for Whiting Fld NAS, FL

Change the Weather History Date:

Friday, November 16, 2012

  Actual Average Record
Temperature  
Mean Temperature 50 °F -  
Max Temperature 57 °F 67 °F 81 °F (2011)
Min Temperature 43 °F 49 °F 32 °F (2007)
Degree Days  
Heating Degree Days 15    
Moisture  
Dew Point 46 °F    
Average Humidity 94    
Maximum Humidity 100    
Minimum Humidity 72    
Precipitation  
Precipitation 0.00 in - - ()
Sea Level Pressure  
Sea Level Pressure 30.23 in    
Wind  
Wind Speed 4 mph (North)    
Max Wind Speed 9 mph    
Max Gust Speed -    
Visibility 6 miles    
Events      
Averages and records for this station are not official NWS values.
T = Trace of Precipitation, MM = Missing Value Source: NWS Daily Summary

Daily Weather History Graph

Daily Weather History Graph

Search for Another Location

Airport:

Trip Planner

Search our weather history database for the weather conditions in past years. The results will help you decide how hot, cold, wet, or windy it might be!

Date:

Astronomy

Nov. 16, 2012 Rise Set
Actual Time 6:15 AM CST 4:49 PM CST
Civil Twilight 5:50 AM CST 5:15 PM CST
Nautical Twilight 5:20 AM CST 5:44 PM CST
Astronomical Twilight 4:52 AM CST 6:13 PM CST
Moon 9:06 AM CST (11/16) 7:51 PM CST (11/16)
Length of Visible Light 11h 25m
Length of Day
10h 34m
Waxing Crescent, 12% of the Moon is Illuminated
Nov 16
Waxing Crescent
Nov 20
First Quarter
Nov 28
Full
Dec 6
Last Quarter
Dec 13
New

Hourly Weather History & Observations

Time (CST) Temp. Windchill Dew Point Humidity Pressure Visibility Wind Dir Wind Speed Gust Speed Precip Events Conditions
12:56 AM 43.0 °F 41.3 °F 43.0 °F 100% 30.21 in 5.0 mi North 3.5 mph - N/A   Clear
1:56 AM 43.0 °F 41.3 °F 43.0 °F 100% 30.20 in 6.0 mi North 3.5 mph - N/A   Clear
2:47 AM 44.6 °F 43.1 °F 42.8 °F 93% 30.24 in 5.0 mi North 3.5 mph - N/A   Mostly Cloudy
2:56 AM 44.1 °F 42.5 °F 43.0 °F 96% 30.20 in 5.0 mi North 3.5 mph - N/A   Overcast
3:56 AM 45.0 °F - 44.1 °F 97% 30.19 in 6.0 mi Calm Calm - N/A   Overcast
4:28 AM 44.6 °F 43.1 °F 44.6 °F 100% 30.22 in 7.0 mi North 3.5 mph - N/A   Overcast
4:56 AM 45.0 °F 42.6 °F 44.1 °F 97% 30.19 in 7.0 mi North 4.6 mph - N/A   Overcast
5:56 AM 45.0 °F 43.5 °F 44.1 °F 97% 30.21 in 5.0 mi North 3.5 mph - N/A   Overcast
6:26 AM 46.4 °F - 44.6 °F 93% 30.25 in 4.0 mi Calm Calm - N/A   Overcast
6:56 AM 46.0 °F 42.5 °F 45.0 °F 96% 30.23 in 3.0 mi North 6.9 mph - N/A   Overcast
7:16 AM 46.4 °F 42.9 °F 46.4 °F 100% 30.27 in 2.0 mi North 6.9 mph - N/A   Overcast
7:41 AM 46.4 °F 42.9 °F 46.4 °F 100% 30.27 in 1.5 mi North 6.9 mph - N/A   Overcast
7:56 AM 46.9 °F - 46.9 °F 100% 30.24 in 2.0 mi NNE 3.5 mph - N/A   Overcast
8:10 AM 48.2 °F - 46.4 °F 93% 30.28 in 2.5 mi NNE 6.9 mph - N/A   Overcast
8:41 AM 48.2 °F - 46.4 °F 93% 30.28 in 5.0 mi NE 4.6 mph - N/A   Overcast
8:56 AM 48.9 °F - 46.9 °F 93% 30.25 in 7.0 mi NE 3.5 mph - N/A   Overcast
9:56 AM 50.0 °F - 46.9 °F 89% 30.25 in 9.0 mi ENE 9.2 mph - N/A   Overcast
10:56 AM 51.1 °F - 46.9 °F 86% 30.25 in 10.0 mi NE 6.9 mph - N/A   Overcast
11:56 AM 51.1 °F - 48.0 °F 89% 30.24 in 10.0 mi NE 8.1 mph - N/A   Overcast
12:56 PM 53.1 °F - 48.9 °F 86% 30.22 in 10.0 mi Variable 4.6 mph - N/A   Overcast
1:56 PM 54.0 °F - 48.0 °F 80% 30.20 in 10.0 mi NE 9.2 mph - N/A   Overcast
2:56 PM 55.0 °F - 48.9 °F 80% 30.20 in 10.0 mi NE 4.6 mph - N/A   Overcast
3:56 PM 57.0 °F - 48.0 °F 72% 30.19 in 10.0 mi ENE 4.6 mph - N/A   Scattered Clouds
4:56 PM 52.0 °F - 48.9 °F 89% 30.19 in 10.0 mi Calm Calm - N/A   Partly Cloudy
5:56 PM 46.9 °F - 46.0 °F 97% 30.20 in 8.0 mi NW 3.5 mph - N/A   Clear
6:56 PM 45.0 °F 42.6 °F 45.0 °F 100% 30.22 in 8.0 mi NW 4.6 mph - N/A   Clear
7:56 PM 46.0 °F 43.9 °F 46.0 °F 100% 30.22 in 8.0 mi NW 4.6 mph - N/A   Clear
8:56 PM 46.0 °F 43.1 °F 45.0 °F 96% 30.24 in 8.0 mi NNW 5.8 mph - N/A   Clear
9:56 PM 45.0 °F 42.6 °F 45.0 °F 100% 30.25 in 6.0 mi NNW 4.6 mph - N/A   Clear
10:56 PM 44.1 °F 42.5 °F 44.1 °F 100% 30.25 in 5.0 mi North 3.5 mph - N/A   Clear
11:56 PM 46.0 °F 43.9 °F 45.0 °F 96% 30.24 in 8.0 mi North 4.6 mph - N/A   Clear